Theta_e
303 306 309 312 313 315 318 319 318 318 318 318 318 318 317 316 316 315 314 313 313 313 312 311 311 310 309 309 309 310 309 308 309 309 308 309 309 308 308 308 308 308
301 303 305 309 312 313 316 319 319 318 319 318 318 317 317 317 316 315 314 313 313 313 312 311 310 309 309 309 309 309 309 307 307 307 307 307 307 307 307 307 307 307
299 300 301 305 309 311 313 317 319 319 318 319 318 317 317 317 316 315 314 313 312 312 312 311 310 309 309 310 309 309 309 308 307 306 306 306 306 306 306 306 306 306
298 299 299 300 304 307 310 314 318 319 318 318 318 318 318 317 316 315 314 314 312 312 311 310 310 310 310 310 309 307 307 307 306 305 305 305 306 306 305 305 305 305
298 298 298 298 300 303 306 311 316 318 318 318 318 318 318 317 315 315 314 314 312 311 310 310 310 311 310 309 308 307 305 305 305 304 304 304 304 304 304 304 304 304
297 298 298 298 298 299 302 308 314 317 318 318 318 318 318 317 315 315 314 313 313 311 310 309 309 310 309 308 308 308 306 305 304 304 304 303 302 302 302 302 303 304
297 297 297 297 297 297 299 303 311 316 317 317 317 317 317 316 315 315 314 313 313 312 310 309 309 309 309 308 307 307 306 305 304 304 304 302 301 300 301 302 303 304
296 297 297 297 296 296 297 300 306 314 317 317 317 317 317 316 315 314 314 313 313 312 310 309 308 308 308 308 307 305 304 304 303 303 302 301 300 300 300 301 302 303
296 297 297 296 296 296 296 297 301 309 316 317 316 316 316 316 316 315 313 312 312 312 311 309 308 308 308 308 307 306 304 303 303 302 301 300 299 299 300 300 301 301
296 296 296 296 296 295 296 295 297 304 313 316 316 315 315 315 316 315 314 312 311 311 311 310 309 308 307 307 308 306 304 303 302 302 301 299 299 299 299 299 300 300
296 296 296 296 295 295 295 295 295 299 308 315 315 315 315 315 315 315 314 313 312 311 310 309 309 308 307 307 307 307 305 304 303 302 301 299 299 298 299 299 300 300
295 295 296 296 295 295 295 295 295 296 303 313 315 314 314 314 314 314 313 313 312 311 311 309 308 308 308 307 306 306 306 305 303 301 300 299 299 298 298 298 299 299
294 294 295 295 295 295 294 295 295 295 299 308 314 313 313 313 313 313 313 313 313 312 312 310 308 307 307 307 306 305 305 305 303 301 300 299 299 298 298 298 298 298
293 293 294 295 295 294 294 294 295 295 297 304 311 312 312 312 312 312 312 312 313 312 312 310 308 307 306 306 306 305 304 304 303 301 300 298 298 299 299 299 298 297
291 292 294 295 294 294 294 294 294 295 296 302 309 311 312 313 312 311 312 311 312 312 311 310 309 308 307 307 306 305 304 303 303 302 301 299 298 298 298 299 298 297
290 292 294 294 293 293 293 293 294 295 295 300 307 310 310 311 311 311 311 311 311 311 310 310 309 310 310 309 307 306 305 303 302 302 301 300 299 297 297 297 298 297
290 292 293 293 292 292 293 293 294 295 295 298 305 308 308 310 310 310 310 310 310 310 309 309 309 310 311 310 308 307 305 303 302 301 301 301 300 298 298 297 297 297
290 292 292 291 291 292 293 293 294 295 295 297 303 306 307 308 309 309 309 309 309 309 309 309 308 308 309 309 309 307 305 304 303 302 301 301 301 300 299 298 297 296
290 291 290 290 291 292 293 293 294 295 295 297 301 305 306 306 307 308 308 309 309 308 309 309 308 308 307 307 307 307 306 304 303 302 302 301 301 300 300 299 298 297
289 289 289 290 291 292 293 293 294 295 295 297 300 303 304 305 306 306 307 308 308 308 308 307 308 308 309 307 306 306 306 305 303 302 302 302 301 301 300 300 299 299
288 289 290 291 292 293 293 293 294 295 295 297 300 302 303 305 305 305 306 306 307 307 307 307 306 307 308 308 307 306 305 304 303 302 302 301 302 302 301 301 300 301
288 289 291 292 292 292 293 294 294 295 295 297 300 301 303 304 304 305 306 306 306 306 306 306 307 306 306 307 307 307 306 304 302 302 301 301 301 301 301 301 301 302
289 290 291 292 292 293 293 294 294 294 295 297 300 300 301 302 303 304 305 305 305 305 305 305 306 307 307 306 306 307 306 304 302 301 300 300 300 300 300 300 301 301
289 290 291 291 292 293 294 294 294 294 295 297 299 300 300 301 302 303 303 304 304 305 305 304 304 305 307 307 306 306 305 303 302 301 300 299 299 299 299 300 300 301
288 290 291 292 293 293 293 294 294 294 295 297 299 300 300 301 302 302 302 302 303 304 304 304 304 304 304 306 306 306 304 303 302 301 300 299 299 299 298 298 299 299
286 288 290 292 293 293 293 293 294 295 295 297 298 299 300 300 301 301 301 301 301 302 302 303 304 304 304 304 305 305 304 303 301 301 300 299 299 298 298 297 297 297
Wind_Speed
36 34 33 35 36 35 31 34 37 39 43 44 44 46 48 49 48 48 49 48 49 51 49 47 47 45 44 44 46 47 46 45 45 45 44 43 42 41 42 41 40 41
39 37 36 35 36 36 34 36 41 40 42 45 46 45 45 48 49 48 48 48 49 51 50 48 48 45 43 44 45 45 44 41 42 43 43 42 42 40 42 42 40 40
39 39 38 37 35 36 37 35 42 44 42 45 46 45 44 46 49 49 48 47 48 50 51 49 49 47 46 47 46 44 44 43 42 43 43 43 42 41 40 41 41 40
39 39 39 39 36 35 39 35 38 45 43 43 45 47 46 45 48 51 50 48 48 49 50 50 50 49 47 47 45 43 43 45 44 44 43 43 43 42 39 39 39 40
36 37 38 41 41 37 38 38 36 43 44 45 47 48 49 47 46 48 49 49 47 46 47 49 52 52 49 47 46 43 41 42 42 42 42 41 41 43 41 39 39 40
35 36 37 39 42 42 41 40 36 39 42 44 48 50 52 51 47 46 49 50 48 45 46 48 51 52 51 48 47 45 43 42 41 41 41 39 39 42 42 41 41 41
34 35 36 36 39 42 42 42 36 35 40 39 43 48 50 51 49 48 50 51 49 46 46 48 49 51 51 50 47 46 44 43 42 42 42 41 38 39 41 42 43 42
33 33 34 35 36 38 40 43 40 34 43 43 41 46 49 51 52 49 48 50 50 49 47 47 48 50 51 51 48 46 44 43 43 44 43 41 39 40 41 42 44 43
31 32 33 34 33 34 37 41 44 35 39 47 45 47 48 49 52 51 48 48 49 49 48 47 47 48 50 52 51 48 46 44 45 45 44 43 42 43 44 43 42 42
29 30 31 32 32 32 35 39 45 41 33 44 45 47 49 48 50 53 51 49 47 47 48 48 48 48 48 51 52 50 48 47 47 47 46 46 47 47 47 45 44 43
28 30 29 30 31 31 34 38 43 45 33 38 41 42 49 50 50 51 52 52 50 47 46 47 49 50 48 48 50 51 51 49 49 49 48 48 49 49 49 49 47 47
27 29 29 29 30 30 33 35 39 44 36 34 41 39 43 48 49 50 51 52 53 51 48 46 47 51 51 49 48 49 51 50 49 49 49 50 49 48 49 50 50 49
27 30 31 29 29 30 32 34 35 41 41 31 41 41 39 42 46 49 50 52 53 53 53 50 46 47 50 51 49 48 49 51 49 48 47 48 49 49 49 50 50 50
30 33 32 29 30 30 30 33 34 36 41 33 35 43 43 44 45 46 48 49 51 51 51 51 49 47 47 48 49 48 49 50 51 50 48 46 47 49 50 50 50 49
33 35 32 29 29 31 30 32 33 33 39 35 32 41 46 49 48 47 47 46 47 49 48 50 51 50 49 49 49 48 47 48 50 52 51 47 46 47 48 50 50 50
37 36 32 28 28 31 31 32 32 32 36 35 32 38 43 48 48 46 47 45 44 45 47 49 51 51 52 52 52 51 48 45 46 49 51 50 47 46 46 47 49 50
40 34 29 27 29 32 32 32 32 31 34 34 32 36 37 44 47 44 45 45 43 43 42 43 44 48 54 55 53 53 52 49 46 46 48 49 48 46 45 45 46 47
38 30 26 28 31 32 31 31 31 30 33 33 30 34 35 38 44 44 43 43 42 42 42 41 39 41 49 56 57 54 53 52 50 48 47 48 48 47 46 46 46 46
30 25 26 30 31 31 30 30 30 29 30 32 30 34 35 36 40 42 43 44 42 40 40 43 44 42 43 50 55 56 55 53 50 49 48 48 49 49 48 48 48 47
25 26 29 31 30 29 29 28 28 29 29 30 30 31 33 34 36 38 40 42 44 42 39 38 42 47 49 49 50 53 56 54 50 48 49 49 50 51 50 49 50 49
28 28 28 28 28 27 28 27 27 27 29 28 29 31 33 35 35 36 36 37 39 41 41 38 38 43 49 54 53 52 51 50 48 47 47 47 50 52 52 51 51 51
30 28 27 26 26 26 26 26 26 26 28 27 27 30 33 34 35 36 38 38 37 37 37 39 40 42 45 50 54 56 53 48 44 44 44 45 46 49 50 51 51 52
27 26 25 24 25 24 24 24 25 26 27 26 26 27 28 31 33 36 38 40 40 38 36 36 39 44 47 48 51 54 55 51 45 41 40 41 42 44 46 47 50 52
28 26 24 24 24 23 23 24 24 25 26 25 26 27 28 31 32 33 35 38 40 41 40 36 35 41 48 51 51 52 53 50 46 41 38 37 38 40 43 45 48 51
29 26 25 25 24 23 23 24 24 24 25 25 27 28 28 30 31 30 31 35 38 41 42 40 37 37 43 49 52 54 52 48 45 41 37 36 36 36 38 40 43 48
29 27 27 25 24 24 24 25 25 24 24 24 26 28 27 29 30 30 31 32 35 37 39 42 41 40 42 46 49 53 53 49 44 40 37 35 35 35 35 36 37 41
Wind_Direction
328 317 300 287 281 274 251 220 204 197 194 192 193 194 193 195 197 197 196 194 192 192 194 194 192 190 189 189 189 189 190 190 191 194 196 195 197 198 197 197 198 198
330 327 317 301 287 284 269 233 210 202 197 193 194 195 193 193 196 196 195 193 192 192 192 193 192 190 188 188 190 190 191 190 191 195 196 196 197 198 198 199 199 200
329 328 326 316 299 291 283 249 215 204 200 195 194 194 193 193 195 195 195 193 192 192 191 191 191 190 190 191 192 192 193 193 193 196 198 198 199 199 199 200 200 201
325 325 326 324 315 303 294 270 224 206 203 197 194 194 194 196 195 193 193 194 193 192 190 189 190 190 191 192 192 192 192 194 195 195 195 198 200 201 201 199 200 203
320 322 323 326 326 320 308 286 240 209 202 200 196 194 194 196 196 191 190 192 193 193 190 188 189 190 190 191 192 193 193 193 193 193 192 195 198 202 204 202 201 204
317 320 322 325 327 327 320 299 258 216 201 200 198 195 194 194 194 192 190 191 193 192 190 187 188 189 190 189 191 194 195 194 193 193 193 195 196 199 204 203 201 203
315 317 320 323 326 326 324 313 283 233 207 202 198 194 193 192 192 192 191 190 191 192 191 189 187 187 188 188 189 192 194 194 193 193 194 195 195 195 199 201 201 203
313 314 317 320 324 325 323 320 303 254 214 202 200 196 193 191 190 191 191 190 190 192 192 191 188 187 186 187 188 190 191 192 192 193 193 193 193 194 196 198 199 201
310 310 313 317 322 323 320 320 314 282 223 199 197 197 194 192 189 188 190 190 190 190 191 191 190 188 187 187 188 189 189 189 191 192 192 191 192 195 196 196 197 199
307 307 309 313 317 320 317 316 317 302 247 203 194 194 192 192 190 188 189 190 190 190 190 191 190 189 189 189 190 189 188 189 190 192 192 192 193 194 195 195 196 197
304 304 304 309 313 316 315 311 314 310 271 213 195 192 191 189 190 189 188 189 190 191 191 191 190 190 190 191 191 190 190 191 191 191 193 194 194 194 193 194 195 196
302 302 301 304 308 311 312 308 309 313 291 227 198 194 192 188 187 188 188 189 190 190 191 193 191 190 191 193 193 191 190 192 192 192 193 194 194 193 193 193 194 196
302 302 298 299 304 305 309 306 303 310 302 251 203 192 192 188 186 188 189 189 189 189 191 194 193 191 190 192 194 193 192 192 192 192 193 194 194 193 193 194 194 195
302 302 296 293 299 302 303 304 300 304 305 275 212 189 188 189 188 189 189 189 189 190 191 193 192 190 189 191 193 194 194 193 192 192 193 194 193 192 193 194 195 195
301 300 293 288 296 300 299 301 298 299 305 286 228 193 187 190 190 190 189 190 191 190 191 191 190 189 191 193 194 195 196 196 193 192 193 193 192 192 193 195 195 196
299 294 286 284 294 298 296 298 295 295 304 288 238 202 190 188 189 189 189 191 192 190 190 192 191 191 194 196 197 197 197 197 196 194 193 193 192 191 191 193 195 197
293 285 279 284 294 295 291 293 292 292 300 287 240 207 193 187 185 188 189 190 191 190 190 193 193 193 196 199 199 198 197 196 197 196 194 193 193 191 190 192 194 196
282 275 277 287 292 290 286 288 289 289 295 286 243 207 194 187 184 185 188 190 192 191 191 194 196 196 197 198 199 198 197 196 196 196 195 193 194 193 192 192 192 195
272 273 285 289 286 283 281 284 286 285 289 281 246 209 194 189 186 185 187 189 192 193 194 195 196 198 198 198 198 198 198 197 196 196 195 194 194 194 193 192 192 193
276 281 286 284 278 276 277 280 280 282 286 276 246 214 194 189 189 188 187 189 191 194 197 197 197 198 199 199 198 198 199 198 197 197 197 195 194 194 194 193 193 191
280 282 280 274 270 271 275 276 276 281 285 271 241 215 198 191 190 189 189 191 193 193 195 197 199 200 198 198 198 198 199 199 198 197 198 197 196 195 195 194 194 192
274 274 269 263 266 269 270 271 273 280 281 263 234 214 202 193 190 190 190 192 195 196 195 197 199 201 199 197 197 197 197 198 199 198 198 198 197 196 195 195 194 193
270 263 257 259 265 265 263 266 272 278 276 256 227 211 201 194 190 191 192 192 194 196 198 198 198 200 200 199 197 196 194 195 197 199 199 199 197 196 195 195 196 195
267 258 257 262 262 256 258 265 269 273 270 249 222 208 200 194 192 191 192 194 194 197 199 200 199 200 200 200 199 197 194 193 195 197 199 198 197 196 196 196 197 197
266 261 262 261 256 252 258 265 265 268 266 245 220 209 201 194 191 190 191 195 197 198 199 200 201 201 200 200 199 197 195 193 192 194 196 196 195 195 197 198 198 199
273 270 266 259 253 256 262 264 262 264 261 239 217 209 202 193 190 191 191 194 197 198 199 200 201 201 201 201 200 197 196 193 192 192 193 192 192 193 194 196 198 200